Tracking 20472 objects as of 28-Feb-2020
HD Live streaming from Space Station
objects crossing your sky now

ABS-1A (KOREASAT 2)

Track ABS-1A (KOREASAT 2) now!
ABS-1A (KOREASAT 2) is classified as:


NORAD ID: 23768
Int'l Code: 1996-003A
Perigee: 35,905.1 km
Apogee: 35,947.1 km
Inclination: 9.5 °
Period: 1,442.9 minutes
Semi major axis: 42297 km
RCS: 25.1188 m2 (large)
Launch date: January 14, 1996
Source: South Korea (SKOR)
Launch site: AIR FORCE EASTERN TEST RANGE (AFETR)

Korean peninsula; 15 Ku-band transponders.
aabbcc
Your satellite tracking list
Your tracking list is empty




NASA's NSSDC Master Catalog

Two Line Element Set (TLE):
1 23768U 96003A   20058.78724753 -.00000253 +00000-0 +00000-0 0  9993
2 23768 009.5446 040.3729 0004963 334.6912 039.1208 00.99801512088218
Source of the keplerian elements: AFSPC